Wind_Speed
29 29 29 29 29 28 27 27 27 27 26 25 25 25 24 24 24 23 23 23 23 22 22 21 21 22 23 23 23 22 23 23 23 24 24 25 26 27 28 28 29 30 30 31
30 29 30 29 29 29 27 27 27 27 27 26 27 26 26 25 25 25 25 25 25 25 24 24 24 25 25 26 26 25 26 27 26 26 26 27 28 29 30 31 31 32 31 32
31 30 31 31 29 29 28 28 27 28 28 28 28 28 27 26 26 26 26 26 27 27 27 27 26 26 27 28 29 29 29 30 30 30 30 30 30 31 32 32 33 33 33 33
31 31 33 30 30 30 29 28 29 29 28 28 29 29 28 28 28 28 27 27 27 28 29 29 29 29 30 31 32 32 32 32 33 32 33 33 34 34 35 34 34 34 34 35
32 32 33 31 31 30 30 30 29 29 29 29 29 29 29 28 28 29 30 30 30 30 30 31 31 32 32 33 33 35 35 35 35 35 35 35 36 36 36 36 36 35 36 36
33 33 33 31 30 29 30 30 29 30 30 30 30 30 29 29 30 31 32 32 32 32 33 33 34 35 35 35 35 35 36 36 36 37 38 38 38 38 37 37 36 36 36 37
34 33 33 32 31 30 31 30 30 31 31 31 31 31 31 31 31 32 33 33 33 33 34 34 35 35 35 36 36 36 37 37 38 39 40 40 40 40 38 38 38 38 37 37
33 33 33 32 32 32 31 31 31 32 32 32 32 32 32 32 32 32 32 33 33 34 35 36 36 37 37 36 37 37 38 39 39 40 41 40 40 39 39 39 39 39 38 38
34 33 33 32 32 32 32 32 32 32 32 33 33 33 33 33 33 34 34 34 35 35 36 36 37 37 37 37 38 38 38 38 38 39 39 39 40 40 39 39 39 39 40 40
34 33 32 31 31 32 32 33 32 32 32 32 32 33 33 33 33 34 34 35 35 35 36 36 37 37 38 38 38 39 39 39 39 39 39 39 39 39 39 39 39 40 40 41
35 34 33 33 33 33 33 32 32 32 32 32 32 32 32 33 34 34 35 36 37 37 37 37 37 38 38 38 38 39 39 39 40 39 39 40 40 40 40 40 40 40 40 40
35 34 34 33 33 33 33 33 33 33 32 32 32 33 33 34 34 35 36 36 36 36 36 37 37 37 37 38 39 40 40 40 40 40 40 40 40 40 40 40 41 41 41 40
34 34 33 34 34 33 33 33 32 32 33 33 34 34 34 35 36 36 36 36 37 37 37 37 37 37 38 39 40 40 40 40 40 39 39 39 39 39 39 40 40 41 41 41
33 32 32 32 32 33 33 33 33 33 34 34 34 35 35 35 36 37 36 36 36 37 37 37 37 38 39 40 40 40 40 40 40 40 40 40 39 39 39 39 39 40 41 41
33 32 32 32 32 32 32 33 33 34 34 34 34 35 34 35 35 36 36 36 36 36 37 38 38 38 39 41 41 41 41 41 41 41 41 40 40 40 39 39 40 40 40 40
30 31 31 32 32 32 33 33 32 32 33 33 33 33 33 34 34 35 35 36 37 37 38 38 38 39 40 40 40 40 40 41 41 41 41 40 39 39 39 39 38 38 38 37
27 28 29 30 31 31 30 31 31 31 31 31 32 32 32 33 33 34 35 36 37 37 37 38 38 39 40 41 40 40 40 40 40 40 40 39 38 37 37 37 36 36 35 34
25 25 26 27 28 28 28 29 29 29 30 30 31 31 31 32 33 34 34 35 35 36 37 38 38 39 40 40 40 40 39 38 38 38 38 38 37 36 36 36 36 34 33 32
23 24 25 25 26 27 27 28 28 28 29 29 29 30 30 31 32 32 33 34 35 36 37 38 38 39 39 39 39 39 38 37 36 36 36 36 35 35 35 35 34 32 31 31
22 23 24 24 25 26 26 26 26 27 27 28 28 27 28 29 30 30 32 33 34 35 35 35 36 36 36 36 36 36 35 35 34 34 35 35 35 34 34 33 32 31 31 31
22 22 23 23 24 24 25 25 25 25 26 26 26 27 27 28 28 29 30 31 32 32 32 32 33 33 33 33 33 32 32 33 33 32 33 32 32 32 32 31 30 30 31 31
21 21 22 23 23 24 24 24 24 24 24 25 26 26 26 27 28 29 30 31 30 30 30 30 30 30 30 31 31 31 31 31 31 31 31 30 30 30 29 29 29 29 30 30
20 21 21 22 22 23 23 23 23 23 23 24 25 26 26 27 28 29 29 29 29 29 28 29 29 29 29 29 29 29 29 29 29 29 29 29 28 28 28 28 28 29 28 28
19 19 20 20 21 22 22 22 22 23 24 25 25 25 26 27 27 27 27 27 27 27 27 27 27 27 27 27 28 28 28 28 28 28 27 27 27 26 27 27 27 28 28 27
18 18 19 19 20 20 20 20 21 22 23 23 24 24 25 26 26 26 26 26 25 26 26 26 26 26 27 27 27 27 27 27 26 25 25 25 25 26 26 27 27 27 27 27
17 18 18 19 19 19 20 20 21 21 22 22 22 23 23 24 24 24 24 24 24 25 25 26 26 26 26 26 26 26 26 26 25 25 25 25 25 25 25 25 25 26 26 26
17 17 18 18 18 18 19 20 20 20 20 20 20 21 22 23 23 23 23 24 24 25 25 25 25 25 25 25 25 25 25 25 25 25 25 25 26 26 25 25 25 25 25 25
Wind_Direction
255 257 259 262 263 263 265 266 269 269 270 270 272 272 274 275 276 276 276 277 280 281 280 282 284 287 286 285 287 288 286 287 286 286 287 287 287 287 287 287 285 283 281 280
257 259 260 263 262 261 263 266 268 268 268 268 269 271 273 274 274 274 275 276 277 278 279 281 285 285 283 281 284 285 284 285 285 285 285 285 286 287 286 286 284 283 282 281
259 260 261 261 263 263 265 266 268 268 268 267 268 270 270 271 271 272 271 273 277 281 282 282 284 286 283 282 283 282 283 284 283 284 284 285 286 287 288 287 285 283 282 281
259 260 261 263 264 265 266 269 270 269 271 268 267 267 269 269 269 271 273 275 277 280 282 282 284 285 285 285 286 285 283 284 282 283 284 284 286 287 287 286 284 284 283 282
260 261 263 264 265 267 267 267 269 270 268 268 267 267 267 268 269 271 272 274 276 279 281 281 282 284 285 285 286 286 284 285 283 285 287 286 286 287 286 285 284 283 282 280
260 263 265 266 266 267 267 267 269 270 269 267 266 266 267 268 268 269 270 272 275 277 279 281 283 283 283 285 285 285 285 285 286 287 287 287 288 287 286 285 285 284 284 282
260 263 266 267 267 267 266 268 269 269 269 268 267 267 268 268 269 270 270 271 274 276 279 282 284 284 285 285 285 285 285 285 286 286 287 287 287 286 286 286 286 285 284 284
258 260 264 267 267 267 268 268 267 268 268 268 269 268 268 269 269 271 271 273 274 276 279 282 284 285 284 284 284 285 286 286 286 287 288 288 288 288 287 286 286 284 284 285
257 260 262 264 264 266 267 268 268 269 269 269 270 269 269 268 269 273 274 275 276 277 279 282 284 285 285 285 285 286 286 288 289 289 290 290 290 289 288 287 286 285 284 284
259 260 261 262 264 266 268 271 271 271 269 270 270 270 269 270 272 273 274 276 277 279 280 282 283 284 285 286 286 286 287 289 290 291 291 291 291 291 290 289 288 287 284 283
260 260 260 261 264 267 269 271 271 271 270 271 271 271 272 273 275 276 277 278 278 279 280 281 282 283 284 285 286 286 289 289 290 292 292 293 293 292 291 289 288 287 286 284
260 261 261 262 264 266 268 270 271 272 272 271 272 272 273 275 279 281 281 278 279 280 280 282 283 283 284 286 288 289 289 290 291 292 293 293 292 291 290 289 288 288 287 286
259 259 260 262 264 267 269 270 270 270 271 272 273 275 276 278 280 281 281 282 282 283 283 283 284 284 285 287 289 289 290 291 293 293 293 292 293 292 291 289 287 287 287 287
259 259 260 262 264 266 267 268 269 270 272 273 274 276 278 279 280 280 282 282 282 282 283 284 285 286 287 287 289 290 292 294 294 295 295 294 293 293 292 290 288 287 287 286
259 261 263 263 263 265 266 268 269 270 273 275 277 278 278 279 280 281 282 282 282 283 284 285 285 287 288 289 289 290 292 294 295 295 295 294 293 293 292 291 290 289 288 287
259 261 264 265 266 268 269 271 273 274 275 275 276 277 277 278 279 280 281 283 283 284 285 286 286 286 288 290 292 292 293 294 294 294 294 294 293 293 293 293 293 292 291 289
262 263 264 266 267 269 271 273 275 276 276 276 277 278 279 280 281 282 282 283 284 285 285 286 286 287 288 289 291 292 293 294 293 293 293 294 294 294 294 294 295 294 293 290
264 264 265 266 267 268 271 273 275 277 276 277 278 279 280 281 283 284 284 284 285 286 286 287 288 289 290 290 290 292 293 292 292 293 293 294 293 293 293 294 295 295 293 291
264 265 266 267 269 272 273 275 276 278 279 279 279 279 281 283 285 286 287 287 287 288 288 288 290 290 291 291 291 291 292 292 293 293 293 293 293 293 294 294 295 294 294 292
264 266 267 269 272 274 275 277 277 278 279 279 279 280 283 284 286 287 290 291 292 292 292 292 292 292 293 293 293 292 292 293 294 294 295 295 294 293 294 294 293 293 292 291
265 266 268 271 273 275 275 277 279 279 279 280 281 283 285 286 288 290 293 293 295 294 294 294 294 293 294 294 294 294 294 295 295 295 296 296 295 294 293 293 293 292 292 291
265 266 269 271 272 274 276 277 279 281 281 282 284 285 286 289 292 294 295 296 296 295 295 296 295 295 296 297 296 295 296 296 295 295 296 296 296 295 295 295 294 294 294 293
266 267 269 273 273 273 276 279 280 282 282 283 284 285 288 291 294 295 296 296 296 296 296 296 297 298 299 300 299 298 298 298 298 297 296 296 296 296 296 296 297 296 296 294
266 269 272 275 276 279 281 282 282 283 284 286 288 290 292 294 295 295 296 297 298 297 297 299 299 299 300 301 301 301 300 300 300 298 297 296 296 296 298 299 299 298 298 296
271 272 275 277 279 281 284 286 286 286 287 288 290 292 294 295 295 296 298 299 300 300 300 300 300 300 300 301 302 302 301 302 302 301 300 299 298 298 299 300 300 299 299 299
274 275 277 279 279 282 285 286 287 288 289 290 291 293 295 296 298 299 301 301 302 302 302 302 301 301 302 303 304 304 304 303 303 303 302 302 301 301 301 302 303 303 302 301
276 278 279 280 280 281 284 287 289 291 292 293 294 296 298 299 299 301 302 302 302 303 304 304 304 304 304 306 307 307 307 305 304 304 303 303 303 303 302 302 304 305 305 303
Height
5868 5870 5871 5872 5873 5874 5875 5875 5876 5877 5877 5878 5879 5880 5880 5880 5880 5880 5880 5880 5879 5879 5878 5877 5876 5876 5875 5874 5873 5872 5871 5870 5869 5867 5866 5864 5863 5861 5860 5858 5857 5855 5854 5853
5861 5863 5864 5865 5866 5867 5868 5869 5869 5870 5871 5872 5872 5873 5873 5873 5874 5874 5874 5873 5873 5872 5872 5871 5870 5870 5869 5868 5866 5866 5865 5863 5861 5860 5858 5857 5855 5853 5852 5850 5848 5847 5846 5845
5854 5856 5856 5857 5859 5860 5861 5862 5862 5863 5865 5864 5865 5865 5866 5866 5866 5867 5867 5867 5866 5865 5865 5864 5864 5863 5861 5860 5859 5858 5856 5855 5853 5852 5850 5848 5847 5845 5843 5842 5840 5838 5837 5835
5847 5849 5849 5853 5852 5853 5853 5854 5855 5856 5857 5857 5857 5858 5858 5858 5859 5859 5859 5859 5858 5858 5857 5856 5855 5854 5853 5851 5850 5849 5847 5846 5844 5843 5841 5839 5837 5835 5834 5832 5830 5828 5827 5826
5839 5840 5841 5844 5845 5845 5846 5847 5848 5848 5849 5849 5849 5850 5850 5850 5851 5851 5851 5851 5850 5849 5848 5848 5846 5845 5844 5842 5841 5839 5837 5835 5834 5833 5831 5829 5827 5825 5823 5822 5820 5818 5817 5815
5831 5832 5833 5837 5838 5837 5838 5838 5840 5840 5840 5841 5841 5842 5843 5842 5842 5842 5842 5842 5841 5841 5840 5838 5837 5836 5834 5832 5830 5829 5827 5826 5824 5822 5820 5818 5816 5815 5813 5811 5809 5807 5806 5805
5823 5824 5825 5828 5829 5830 5831 5832 5832 5831 5832 5832 5833 5833 5834 5833 5833 5833 5833 5832 5831 5831 5830 5828 5827 5825 5824 5822 5820 5818 5817 5815 5813 5811 5809 5807 5805 5803 5801 5800 5798 5797 5795 5793
5815 5817 5819 5819 5820 5822 5822 5822 5822 5822 5823 5823 5824 5824 5824 5824 5823 5823 5823 5822 5822 5821 5819 5818 5816 5815 5813 5812 5810 5808 5806 5804 5802 5800 5797 5795 5793 5791 5790 5788 5786 5785 5783 5782
5808 5810 5810 5811 5812 5812 5812 5813 5813 5814 5814 5814 5814 5815 5815 5814 5814 5814 5813 5813 5812 5810 5809 5808 5806 5804 5803 5801 5799 5797 5795 5792 5790 5788 5785 5783 5781 5779 5777 5776 5774 5773 5771 5770
5798 5800 5801 5802 5803 5803 5803 5804 5804 5804 5805 5805 5805 5805 5805 5805 5804 5803 5803 5802 5801 5800 5799 5797 5796 5794 5792 5790 5788 5786 5784 5781 5779 5776 5774 5772 5770 5767 5765 5763 5761 5760 5759 5757
5790 5791 5792 5793 5794 5795 5795 5795 5795 5795 5795 5795 5795 5795 5795 5795 5794 5793 5793 5792 5790 5789 5788 5787 5785 5783 5781 5779 5777 5775 5773 5770 5768 5765 5762 5759 5757 5755 5753 5751 5749 5747 5746 5744
5781 5782 5784 5785 5785 5785 5786 5786 5786 5785 5785 5785 5785 5785 5785 5784 5784 5783 5782 5781 5779 5778 5777 5776 5774 5772 5770 5768 5766 5764 5762 5759 5756 5754 5751 5748 5745 5743 5740 5738 5736 5734 5732 5731
5772 5773 5774 5775 5776 5776 5776 5776 5776 5776 5776 5776 5775 5775 5775 5774 5773 5773 5772 5770 5769 5768 5766 5765 5763 5762 5759 5757 5755 5752 5750 5747 5744 5741 5739 5736 5733 5731 5728 5726 5723 5721 5719 5717
5762 5763 5765 5766 5767 5767 5767 5767 5767 5766 5766 5766 5766 5765 5765 5764 5763 5762 5761 5759 5758 5756 5755 5754 5752 5750 5748 5746 5743 5741 5738 5735 5732 5730 5727 5724 5721 5719 5716 5714 5712 5709 5707 5705
5754 5755 5756 5757 5758 5758 5758 5757 5757 5756 5756 5756 5756 5755 5754 5754 5753 5752 5750 5748 5747 5745 5744 5742 5741 5739 5737 5734 5732 5729 5726 5723 5720 5718 5715 5712 5709 5707 5704 5702 5699 5697 5695 5693
5745 5746 5747 5748 5748 5748 5748 5748 5747 5746 5746 5746 5746 5745 5744 5744 5743 5741 5740 5738 5737 5735 5733 5731 5730 5728 5725 5723 5720 5717 5714 5712 5709 5706 5703 5700 5697 5695 5692 5690 5687 5684 5682 5680
5737 5738 5739 5739 5739 5739 5739 5739 5738 5738 5737 5737 5736 5736 5735 5734 5733 5731 5729 5728 5726 5724 5722 5720 5718 5716 5713 5711 5708 5706 5703 5700 5697 5694 5692 5689 5686 5684 5681 5678 5675 5673 5670 5668
5730 5730 5731 5731 5731 5731 5731 5731 5730 5729 5729 5728 5728 5727 5726 5724 5723 5721 5719 5717 5715 5714 5711 5709 5707 5704 5701 5699 5696 5694 5691 5688 5685 5683 5680 5677 5675 5673 5670 5667 5665 5662 5660 5658
5723 5723 5723 5723 5723 5723 5723 5722 5722 5721 5721 5720 5719 5718 5716 5715 5713 5711 5709 5707 5705 5703 5701 5698 5695 5692 5689 5687 5684 5682 5680 5677 5674 5672 5669 5667 5664 5662 5659 5657 5654 5652 5650 5648
5716 5716 5716 5716 5716 5715 5715 5714 5714 5713 5712 5711 5710 5709 5708 5706 5704 5702 5700 5698 5695 5692 5690 5687 5684 5681 5679 5676 5673 5671 5669 5667 5664 5662 5659 5656 5654 5651 5649 5646 5644 5642 5640 5638
5709 5709 5709 5709 5709 5708 5707 5707 5706 5705 5704 5703 5702 5701 5699 5697 5695 5693 5691 5689 5686 5683 5680 5677 5674 5672 5669 5666 5664 5661 5659 5657 5655 5652 5649 5647 5644 5642 5639 5637 5635 5632 5630 5628
5703 5703 5702 5702 5702 5701 5701 5700 5699 5698 5697 5696 5695 5693 5691 5689 5687 5685 5682 5680 5677 5674 5671 5668 5665 5663 5660 5657 5655 5652 5650 5648 5645 5643 5640 5637 5635 5632 5630 5627 5625 5623 5620 5618
5696 5696 5696 5696 5695 5695 5694 5693 5693 5691 5690 5689 5688 5686 5684 5681 5679 5677 5674 5671 5668 5666 5663 5660 5657 5655 5652 5649 5646 5644 5641 5639 5636 5634 5631 5628 5626 5623 5621 5618 5616 5613 5610 5608
5691 5690 5690 5690 5689 5689 5688 5687 5686 5685 5684 5682 5680 5678 5676 5674 5671 5669 5666 5663 5661 5658 5655 5653 5650 5647 5644 5641 5639 5636 5633 5631 5628 5625 5622 5620 5617 5615 5612 5610 5607 5604 5601 5599
5685 5685 5685 5684 5683 5683 5682 5681 5679 5678 5677 5675 5674 5672 5669 5667 5664 5662 5659 5656 5654 5651 5648 5645 5643 5640 5637 5634 5631 5629 5626 5623 5620 5617 5614 5612 5609 5607 5604 5601 5598 5595 5592 5590
5680 5679 5679 5678 5678 5677 5676 5675 5673 5672 5671 5669 5667 5665 5663 5660 5658 5655 5652 5650 5647 5644 5641 5639 5636 5633 5630 5627 5624 5622 5619 5616 5613 5610 5607 5605 5602 5599 5596 5593 5590 5587 5584 5581
5674 5674 5673 5672 5672 5671 5670 5669 5667 5666 5664 5663 5661 5659 5657 5654 5651 5649 5646 5643 5641 5638 5635 5632 5629 5626 5623 5620 5618 5615 5612 5609 5606 5603 5600 5597 5595 5592 5589 5586 5583 5580 5577 5573